Location: Caltech
(34.1382°N, 118.1253°W)
Time: 06:34:24
(UTC-07:00)

AO-27 - Visible Passes

Search period start: 20 June 2018 00:00
Search period end: 30 June 2018 00:00
Orbit: 786 x 797 km, 98.9° (Epoch: 19 June)

Date Brightness Start Highest point End Pass type
(mag) Time Alt. Az. Time Alt. Az. Time Alt. Az.
20 Jun 9.8 04:09:36 10° NE 04:13:43 23° E 04:17:48 10° SSE visible
21 Jun 10.4 03:42:55 10° ENE 03:44:23 11° E 03:45:51 10° ESE visible
22 Jun 8.2 04:50:02 10° NNE 04:55:13 60° E 05:00:22 10° S visible
23 Jun 9.4 04:21:29 10° NE 04:26:03 30° E 04:30:37 10° SSE visible
24 Jun 10.2 03:53:47 10° ENE 03:56:47 15° E 03:59:45 10° SE visible
25 Jun 7.9 05:02:14 10° NNE 05:07:30 79° ESE 05:12:43 10° S visible
26 Jun 8.9 04:33:28 10° NNE 04:38:23 40° E 04:43:16 10° SSE visible
27 Jun 10.0 04:05:19 10° NE 04:09:09 20° E 04:12:57 10° SE visible
29 Jun 8.5 04:45:34 10° NNE 04:50:41 53° E 04:55:47 10° S visible
